Regional Weather Roundup
Issued by NWS Glasgow, MT

Home | Current Version | Previous Version | Text Only | Print | Product List | Glossary On
Versions: 1 2 3 4 5 6 7 8 9 10 11 12 13 14 15 16 17 18 19 20 21 22 23 24 25 26 27
000
ASUS45 KGGW 302015
RWRGGW
HOURLY REGIONAL WEATHER ROUNDUP FOR NORTHEAST MONTANA
NATIONAL WEATHER SERVICE GLASGOW MONTANA
200 PM MDT FRI SEP 30 2016

NOTE: "FAIR" INDICATES FEW OR NO CLOUDS BELOW 12,000 FEET WITH NO
SIGNIFICANT WEATHER AND/OR OBSTRUCTIONS TO VISISBILITY.

NORTHEAST MONTANA


CITY           SKY/WX    TMP DP  RH WIND       PRES   REMARKS
GLASGOW        CLOUDY    73  50  44 S8        29.93F
PLENTYWOOD       N/A     72  49  44 SE6G15      N/A
WOLF POINT     MOSUNNY   73  50  44 VRB5      29.94F
JORDAN           N/A     81  53  37 VRB3      29.94F
WINNETT          N/A     79  53  40 W3G12       N/A
SIDNEY         CLOUDY    66  53  63 NE3       29.96F
GLENDIVE       MOSUNNY   72  57  59 S5        29.96F
MALTA            N/A     78  57  48 NW5         N/A
SCOBEY           N/A     74  49  41 E7        29.95F
OPHEIM           N/A     77  48  36 SW3       29.71F

FORT PECK REPORTS


CITY           SKY/WX    TMP DP  RH WIND       PRES   REMARKS
FORT PECK        N/A     71  53  52 E5          N/A
THE PINES        N/A     74  50  42 CALM        N/A

SOUTHEAST MONTANA


CITY           SKY/WX    TMP DP  RH WIND       PRES   REMARKS
BILLINGS       MOSUNNY   79  44  28 SW9       30.01F
MILES CITY     SUNNY     81  50  33 SW9       29.95F
BAKER          SUNNY     74  51  44 S9        30.01F
LIVINGSTON     SUNNY     78  41  26 SW7       30.07F

CENTRAL MONTANA


CITY           SKY/WX    TMP DP  RH WIND       PRES   REMARKS
HAVRE          SUNNY     74  54  49 NW8       29.99F
LEWISTOWN      CLOUDY    77  45  32 NW7       30.04F
GREAT FALLS    SUNNY     76  42  29 VRB3      30.01F
CUT BANK       SUNNY     71  46  40 SE7       30.01F
HELENA         SUNNY     78  46  32 N8        30.03F
BUTTE          SUNNY     71  36  27 VRB5      30.13F
BOZEMAN        SUNNY     75  44  33 CALM      30.09F

WESTERN MONTANA


CITY           SKY/WX    TMP DP  RH WIND       PRES   REMARKS
MISSOULA       SUNNY     79  43  27 SE12      29.97F
KALISPELL      NOT AVBL

NORTH DAKOTA


CITY           SKY/WX    TMP DP  RH WIND       PRES   REMARKS
WILLISTON      CLOUDY    63  50  62 S14       30.00F
DICKINSON      CLOUDY    65  45  48 SE17      30.02F
MINOT          CLOUDY    63  51  65 E8        30.09S
BISMARCK       LGT RAIN  71  47  42 SE23      30.09F

SOUTHERN SASKATCHEWAN


CITY           SKY/WX    TMP DP  RH WIND       PRES   REMARKS
REGINA         MOSUNNY   72  50  46 SE16G23   29.97S
MOOSE JAW      PTSUNNY   70  52  52 SE6       29.96F
ESTEVAN        LGT RAIN  55  52  88 SE14G22   30.03S
SWIFT CURRENT  SUNNY     66  52  59 NW9       29.97F





USA.gov is the U.S. government's official web portal to all federal, state and local government web resources and services.